EZY7291 LEPA-EGHI

Flight info

Callsign EZY7291
Flight time N/A
Altitude 36000
Route DRAGO DCT PAPOS DCT UMURE DCT XIKEN DCT KARES DCT ARBEK DCT REBUL DCT USKAR DCT MOPAS DCT GIROM DCT AGN DCT SECHE DCT UVELI DCT CNA DCT MANAK UY110 ORIST Y110 THRED
Aircraft A319/M-SDE3FGHIRWY/LB1

Departure

Time 2026-05-04 15:01
Airport Palma de Mallorca Airport (LEPA)

Arrival

Time N/A
Airport Southampton Airport (EGHI)
Time Latitude Longitude Altitude Speed Heading
2026-05-04 14:33 39.54973 2.72259 17 ft 0 kts 328°
2026-05-04 14:49 39.54961 2.72268 19 ft 2 kts 328°
2026-05-04 14:49 39.54948 2.72278 20 ft 2 kts 329°
2026-05-04 14:50 39.54935 2.72288 19 ft 2 kts 330°
2026-05-04 14:50 39.54921 2.72293 19 ft 2 kts
2026-05-04 14:50 39.54906 2.72290 18 ft 2 kts 26°
2026-05-04 14:50 39.54894 2.72279 17 ft 2 kts 50°
2026-05-04 14:51 39.54887 2.72262 17 ft 2 kts 60°
2026-05-04 14:51 39.54879 2.72246 18 ft 2 kts 58°
2026-05-04 14:51 39.54871 2.72229 18 ft 2 kts 58°
2026-05-04 14:51 39.54868 2.72223 19 ft 0 kts 58°
2026-05-04 14:54 39.54872 2.72231 19 ft 3 kts 58°
2026-05-04 14:54 39.54891 2.72272 17 ft 7 kts 58°
2026-05-04 14:54 39.54922 2.72336 17 ft 9 kts 59°
2026-05-04 14:54 39.54958 2.72414 17 ft 11 kts 59°
2026-05-04 14:55 39.55005 2.72514 15 ft 14 kts 59°
2026-05-04 14:55 39.55065 2.72533 14 ft 10 kts 328°
2026-05-04 14:55 39.55141 2.72482 12 ft 13 kts 351°
2026-05-04 14:55 39.55207 2.72559 13 ft 13 kts 58°
2026-05-04 14:56 39.55258 2.72666 13 ft 14 kts 59°
2026-05-04 14:56 39.55310 2.72776 16 ft 13 kts 59°
2026-05-04 14:56 39.55360 2.72884 18 ft 14 kts 59°
2026-05-04 14:56 39.55422 2.73014 19 ft 18 kts 59°
2026-05-04 14:57 39.55494 2.73166 22 ft 21 kts 59°
2026-05-04 14:57 39.55576 2.73340 24 ft 24 kts 59°
2026-05-04 14:57 39.55669 2.73536 26 ft 26 kts 58°
2026-05-04 14:57 39.55768 2.73745 25 ft 27 kts 58°
2026-05-04 14:58 39.55864 2.73946 28 ft 25 kts 59°
2026-05-04 14:58 39.55956 2.74141 28 ft 25 kts 58°
2026-05-04 14:58 39.56081 2.74291 27 ft 24 kts 34°
2026-05-04 14:58 39.56219 2.74358 23 ft 16 kts 330°
2026-05-04 14:59 39.56229 2.74273 23 ft 8 kts 239°
2026-05-04 14:59 39.56225 2.74265 23 ft 0 kts 239°
2026-05-04 15:00 39.56216 2.74247 23 ft 18 kts 239°
2026-05-04 15:00 39.56005 2.73802 23 ft 94 kts 238°
2026-05-04 15:00 39.55545 2.72838 21 ft 155 kts 239°
2026-05-04 15:01 39.54387 2.70397 1466 ft 154 kts 237°
2026-05-04 15:01 39.53835 2.69287 2308 ft 147 kts 236°
2026-05-04 15:01 39.53263 2.68153 2799 ft 160 kts 236°
2026-05-04 15:01 39.52617 2.66897 3255 ft 176 kts 235°
2026-05-04 15:02 39.51907 2.65514 3719 ft 193 kts 236°
2026-05-04 15:02 39.51131 2.63999 4139 ft 214 kts 236°
2026-05-04 15:02 39.50320 2.62407 4956 ft 211 kts 236°
2026-05-04 15:02 39.49521 2.60838 5571 ft 207 kts 237°
2026-05-04 15:03 39.48754 2.59265 6214 ft 213 kts 244°
2026-05-04 15:03 39.48523 2.57324 6731 ft 236 kts 278°
2026-05-04 15:03 39.49337 2.55373 7186 ft 266 kts 307°
2026-05-04 15:03 39.50650 2.53603 7848 ft 276 kts 307°
2026-05-04 15:04 39.51925 2.51764 8645 ft 280 kts 306°
2026-05-04 15:04 39.53205 2.49862 9461 ft 283 kts 306°
2026-05-04 15:04 39.54499 2.47911 10242 ft 288 kts 306°
2026-05-04 15:04 39.55810 2.45918 10761 ft 301 kts 306°
2026-05-04 15:05 39.57197 2.43802 11210 ft 319 kts 306°
2026-05-04 15:05 39.58681 2.41537 11629 ft 334 kts 306°
2026-05-04 15:05 39.60193 2.39235 12310 ft 339 kts 306°
2026-05-04 15:05 39.61720 2.36911 13084 ft 342 kts 306°
2026-05-04 15:06 39.63261 2.34558 13813 ft 344 kts 306°
2026-05-04 15:06 39.64811 2.32192 14540 ft 346 kts 306°
2026-05-04 15:06 39.66355 2.29831 15289 ft 348 kts 306°
2026-05-04 15:07 39.69485 2.25039 16666 ft 352 kts 306°
2026-05-04 15:07 39.71065 2.22613 17324 ft 354 kts 306°
2026-05-04 15:07 39.72659 2.20165 17950 ft 356 kts 306°
2026-05-04 15:07 39.74253 2.17716 18524 ft 360 kts 305°
2026-05-04 15:08 39.75866 2.15237 19091 ft 363 kts 305°
2026-05-04 15:08 39.77501 2.12722 19647 ft 366 kts 304°
2026-05-04 15:08 39.79139 2.10197 20189 ft 370 kts 304°
2026-05-04 15:08 39.80811 2.07619 20751 ft 372 kts 304°
2026-05-04 15:09 39.82468 2.05058 21269 ft 375 kts 304°
2026-05-04 15:09 39.84153 2.02458 21796 ft 378 kts 303°
2026-05-04 15:09 39.85851 1.99831 22328 ft 380 kts 303°
2026-05-04 15:10 39.89263 1.94542 23306 ft 386 kts 302°
2026-05-04 15:10 39.90998 1.91848 23769 ft 389 kts 303°
2026-05-04 15:10 39.94492 1.86415 24660 ft 395 kts 302°
2026-05-04 15:11 39.96257 1.83670 25093 ft 397 kts 302°
2026-05-04 15:11 39.98016 1.80934 25506 ft 400 kts 303°
2026-05-04 15:11 39.99986 1.78292 25895 ft 412 kts 311°
2026-05-04 15:11 40.02350 1.76063 26258 ft 425 kts 321°
2026-05-04 15:12 40.05023 1.74350 26628 ft 436 kts 329°
2026-05-04 15:12 40.07856 1.72874 27019 ft 440 kts 331°
2026-05-04 15:12 40.10728 1.71434 27382 ft 443 kts 331°
2026-05-04 15:12 40.13616 1.69989 27863 ft 442 kts 331°
2026-05-04 15:13 40.16482 1.68543 28264 ft 443 kts 331°